RH
31 30 28 26 24 22 20 18 15 13 11 9 8 6 6 7 7 6 6 7 8 8 9 10 10 10 10 10 13 17 22 27 33 34 34 38 47 60 74 87 92 89 87 81 68 56 51 49 46 42 41 44 49 50 49 52 52 51 55 59 51 43 47 55 73 90 88 76 78 102 100 77 71 75 89 100 100 104 106 105 105 105 101 95 95 95 96 97
32 31 29 27 25 23 21 18 15 13 11 9 8 6 6 7 6 6 6 7 7 8 9 9 11 11 11 11 12 16 22 29 35 37 39 45 59 76 89 98 98 96 94 82 65 57 56 54 49 47 48 52 54 52 52 56 54 51 54 58 54 49 50 49 59 76 84 85 89 99 91 73 75 88 98 101 101 105 105 98 93 93 93 91 91 92 94 98
33 32 31 28 26 25 22 19 16 14 12 10 8 6 7 7 6 6 6 7 6 7 7 9 10 10 11 12 14 18 24 33 38 41 46 54 71 88 98 102 101 101 96 77 63 61 60 59 56 55 57 59 59 58 59 60 58 54 54 58 57 53 54 54 58 67 80 89 92 91 83 79 89 100 100 99 100 101 101 96 89 87 88 89 91 93 94 95
35 34 32 29 27 26 24 20 17 15 12 11 9 6 7 7 6 6 6 6 6 6 7 8 9 10 11 12 17 23 30 38 41 45 50 60 79 95 103 103 103 105 92 71 66 67 66 65 64 62 63 64 64 64 64 65 65 61 57 59 58 53 53 57 66 77 88 91 88 86 83 85 95 103 100 99 100 100 101 100 97 96 95 96 98 99 98 98
36 35 34 31 30 28 26 22 18 16 13 11 10 7 6 7 6 6 6 6 6 7 7 8 9 9 11 13 19 26 36 42 44 49 54 64 84 99 107 105 104 101 83 70 71 72 70 69 67 67 68 68 66 67 68 67 67 66 62 60 56 53 57 63 73 86 90 83 76 77 79 81 87 97 102 101 102 102 103 103 103 101 100 101 100 100 98 99
37 37 36 34 32 31 28 24 21 18 15 12 11 9 6 7 7 7 7 6 6 7 7 8 9 9 11 16 23 30 38 43 49 56 61 73 91 105 107 104 103 94 76 71 73 71 68 66 64 66 68 68 66 66 67 68 68 65 60 59 55 56 66 72 75 80 80 76 76 77 78 81 81 86 92 96 99 99 99 97 97 97 95 95 93 93 91 92
37 38 38 37 36 34 31 27 24 20 17 14 13 11 8 7 7 8 7 7 8 7 8 9 9 10 13 20 30 39 45 52 60 65 73 87 99 104 103 102 101 87 72 71 69 65 61 58 59 61 63 64 62 61 63 66 68 65 58 55 54 59 71 75 73 76 81 83 84 83 82 83 81 78 76 79 83 87 87 83 81 82 82 82 83 84 83 83
38 39 40 40 39 38 35 30 27 24 20 17 14 13 11 8 7 8 9 9 10 10 11 11 12 13 17 25 36 48 57 68 73 75 86 99 103 101 100 103 98 80 69 67 63 59 55 52 53 55 58 59 58 57 56 58 63 64 59 54 54 62 71 73 72 75 80 85 85 85 87 85 81 78 74 71 72 77 80 78 76 74 75 75 75 74 74 74
40 40 41 42 42 42 40 36 31 28 25 21 17 15 14 12 9 8 9 10 11 12 15 15 17 18 21 27 36 49 64 77 84 88 97 103 103 100 102 104 93 74 66 64 62 61 58 55 55 55 56 56 55 56 54 54 58 59 58 53 52 60 70 74 77 81 82 84 86 89 93 91 86 82 80 77 76 79 80 79 79 77 76 74 71 69 66 65
42 42 42 43 45 45 44 41 36 33 30 26 22 18 17 16 13 10 9 11 13 14 17 20 23 24 25 27 32 44 60 74 82 90 99 103 102 100 103 103 88 72 67 68 70 72 69 67 66 64 61 59 58 58 56 55 55 56 55 50 48 54 67 76 83 91 93 93 94 96 97 95 89 85 83 83 83 84 84 82 81 80 79 76 74 70 66 64
46 45 45 46 47 48 48 46 42 38 35 32 27 24 20 19 18 15 11 11 13 16 19 23 28 30 32 32 35 43 57 72 80 83 89 94 97 98 100 95 81 71 70 73 77 78 77 77 77 74 71 68 66 63 60 57 55 55 53 51 50 53 64 75 83 90 94 98 99 99 100 97 93 89 88 90 91 91 88 85 83 82 81 79 77 74 72 70
49 49 48 49 50 51 51 50 47 44 41 38 33 29 26 23 21 20 18 14 12 15 19 25 31 36 39 41 43 48 57 72 85 90 90 92 97 99 97 89 75 67 65 68 72 72 72 74 75 74 75 74 74 70 63 60 57 56 56 57 59 60 66 72 79 84 88 96 100 100 101 101 99 96 96 99 101 98 92 88 86 83 80 79 79 78 76 72
50 51 52 52 53 54 55 54 52 49 46 44 40 36 32 29 25 23 22 20 16 15 17 22 30 37 44 50 51 53 58 69 83 95 98 101 104 103 101 94 82 71 66 64 64 64 64 64 64 66 71 75 79 78 70 65 63 62 62 64 68 72 74 74 76 79 82 91 99 101 101 103 104 101 101 102 100 97 94 93 91 85 81 80 78 76 72 69
50 52 54 56 56 58 60 60 58 55 52 49 45 42 38 35 31 28 26 25 23 20 17 18 23 32 42 52 57 59 63 69 80 92 99 106 107 103 103 101 92 84 79 76 72 68 65 63 62 68 76 80 82 80 75 71 68 67 65 65 71 76 79 78 76 76 80 88 96 99 100 103 105 101 99 96 93 93 97 99 95 90 89 84 76 70 66 62
51 51 54 58 60 61 64 66 65 62 58 54 50 46 43 40 37 34 30 28 27 26 23 21 20 24 32 43 53 61 66 69 75 85 94 102 106 104 103 102 97 90 87 88 84 77 73 70 68 70 74 76 77 77 78 75 71 69 68 67 70 74 78 78 77 80 85 91 96 97 97 98 96 92 89 88 91 96 100 100 96 94 90 81 72 65 60 57
53 52 53 57 62 65 66 69 72 70 64 59 55 50 47 45 41 38 36 33 31 30 28 27 25 23 25 31 40 52 61 67 71 77 85 92 100 103 104 104 102 97 93 91 87 83 81 81 79 76 74 73 73 74 76 75 72 71 69 69 70 73 75 76 79 84 85 88 92 92 89 89 87 85 85 90 94 95 95 95 93 89 80 71 64 60 57 55
57 54 52 54 61 66 69 71 74 77 73 64 58 54 52 49 47 43 40 38 35 33 32 31 30 28 26 25 28 35 45 54 63 72 80 87 95 101 104 104 103 102 100 97 92 89 86 84 82 80 79 78 76 74 75 76 77 75 73 71 71 72 74 77 80 83 82 83 85 85 83 83 85 87 91 94 93 89 91 93 87 77 68 63 61 60 59 57
61 58 54 53 57 63 69 72 75 80 82 74 64 57 53 51 49 46 43 41 39 38 37 34 32 33 32 30 27 27 29 34 43 55 67 78 89 97 102 102 100 100 101 101 98 96 93 91 88 83 82 81 78 76 75 78 81 81 81 79 76 75 76 77 78 80 80 80 81 81 82 85 88 90 91 92 91 93 98 91 77 67 64 65 64 62 60 58
61 62 59 55 55 59 65 72 76 81 86 83 74 61 54 52 49 47 43 41 41 41 40 38 36 36 35 35 33 31 29 27 28 33 41 53 66 78 88 93 97 101 104 105 102 99 99 100 99 96 94 91 88 86 83 82 81 80 81 81 79 77 78 80 81 82 81 79 80 82 86 92 93 89 89 93 99 106 102 83 69 68 69 68 64 60 56 53
60 62 62 59 57 59 61 67 74 80 86 89 85 70 56 52 49 48 45 42 41 41 40 39 39 40 38 36 36 35 34 32 29 27 27 30 38 49 61 72 83 94 104 108 107 103 102 102 104 105 105 103 100 98 94 88 83 80 79 79 78 75 74 77 81 83 82 80 78 81 86 90 92 91 95 101 106 105 94 76 71 73 72 66 59 54 51 49
59 60 62 61 61 62 62 63 68 75 83 89 95 84 64 53 51 50 47 44 43 41 40 40 39 40 40 39 38 37 37 37 35 33 30 27 26 28 35 45 56 69 82 93 98 100 103 105 108 111 109 108 108 102 96 89 83 81 78 78 80 80 79 80 82 81 81 80 81 86 88 89 92 96 103 106 102 93 84 77 78 78 70 60 53 53 54 55
61 59 60 61 62 65 66 65 65 69 77 84 94 93 78 61 53 52 50 46 44 42 40 40 39 38 39 40 39 39 39 39 38 37 36 33 30 26 24 26 32 41 50 60 70 77 85 94 103 111 110 109 110 105 100 98 95 93 90 87 89 92 92 89 88 84 81 82 87 91 91 90 93 98 103 104 98 93 88 84 83 80 67 53 52 60 65 66
67 63 61 60 61 64 67 69 67 67 71 78 86 91 88 75 62 56 55 52 46 43 40 38 37 35 35 37 37 38 39 39 39 39 38 37 36 34 30 27 25 25 28 33 41 49 58 68 80 93 99 101 106 107 105 104 104 105 105 103 101 102 101 98 94 88 83 81 84 89 90 91 95 98 103 104 103 102 94 88 87 81 63 52 59 71 74 72
70 70 68 64 62 63 66 69 71 71 70 73 79 84 87 84 74 61 58 59 53 46 43 38 35 33 32 33 35 36 37 38 39 40 39 39 39 38 37 35 32 28 25 23 25 30 36 43 54 67 76 83 92 98 102 103 105 106 105 106 104 103 103 104 103 98 92 87 84 87 91 98 102 102 104 103 104 101 93 94 96 83 63 53 63 74 75 72
69 71 73 70 67 65 64 65 69 72 74 73 75 80 84 85 83 70 59 59 56 51 48 42 37 34 30 30 31 32 33 36 39 40 41 41 42 42 41 40 38 35 32 27 24 22 23 27 35 44 54 63 71 78 83 88 95 101 104 107 105 103 104 104 106 106 104 97 90 86 87 97 104 104 104 103 103 99 94 98 101 87 67 59 62 69 73 74
67 68 71 74 72 68 65 64 65 69 75 75 74 78 83 83 84 76 64 60 57 53 52 49 45 40 33 31 29 28 28 31 33 35 38 40 41 42 43 43 42 40 38 35 31 27 23 21 22 26 33 43 51 59 65 70 76 83 89 95 97 101 105 106 106 108 108 104 99 93 89 95 103 104 105 106 105 100 96 99 101 92 76 66 63 61 65 73
66 66 67 71 73 72 68 64 64 68 73 75 73 76 82 84 83 74 67 65 58 51 51 51 51 48 42 39 35 33 32 29 29 30 30 32 34 37 39 41 43 44 43 41 39 36 32 28 24 22 22 25 30 37 44 51 60 66 70 76 82 89 96 101 101 102 105 106 106 105 102 103 106 105 106 109 105 97 97 101 103 98 84 71 64 57 55 59
65 64 64 66 69 71 70 66 66 69 71 71 72 75 79 85 85 74 66 66 60 52 51 51 51 51 49 47 44 43 41 39 39 37 33 32 31 31 32 34 36 40 42 44 45 44 42 39 35 31 26 23 22 23 26 31 38 45 50 57 68 79 89 97 101 101 102 103 104 106 109 109 108 107 108 108 104 98 98 103 107 103 88 73 67 60 53 51
64 64 63 63 64 67 69 69 68 69 70 70 72 74 76 81 86 80 69 64 60 56 53 49 48 49 50 49 48 48 47 48 49 47 45 44 41 38 36 33 31 31 33 36 40 44 46 46 44 41 38 33 28 24 22 23 26 30 34 39 47 60 73 84 94 100 104 104 101 101 105 106 104 104 105 105 104 100 99 103 109 102 83 73 72 66 59 55
64 64 64 63 63 64 66 68 69 69 68 69 72 74 74 76 82 85 79 68 61 58 56 52 47 45 47 48 48 48 47 48 49 50 51 53 53 53 51 48 46 43 38 34 33 35 39 44 47 48 46 43 40 35 29 25 23 24 28 33 36 42 50 59 69 79 91 102 105 103 103 102 102 102 101 104 105 101 99 103 106 99 84 78 79 73 67 64
62 64 65 64 64 63 64 65 67 68 67 67 70 72 73 72 75 83 85 79 69 61 57 55 51 46 45 46 47 47 46 45 46 48 50 52 54 56 58 60 63 62 58 52 44 37 33 32 37 42 46 48 47 44 40 34 28 24 24 27 31 34 37 41 46 53 64 81 95 104 105 102 103 104 103 104 105 103 101 102 105 103 92 84 83 82 79 73
61 63 65 67 67 66 66 64 64 66 66 66 68 69 71 71 71 76 82 87 84 70 58 56 55 51 48 46 45 46 47 46 45 46 46 48 51 53 57 60 64 67 68 68 65 59 52 42 34 31 34 41 46 48 47 43 38 31 25 23 26 30 33 34 36 39 43 53 69 88 101 104 104 104 104 104 103 103 103 102 105 104 96 90 91 91 87 81
61 63 66 69 72 72 71 67 63 62 64 65 66 66 67 68 69 72 77 85 92 85 67 56 56 55 51 48 44 42 43 45 46 46 44 44 46 48 51 55 58 62 65 67 68 69 68 64 55 44 34 31 34 42 47 48 46 41 34 27 23 24 30 33 34 35 36 40 48 60 78 97 104 102 101 102 102 103 102 102 104 103 98 97 98 93 89 86
60 64 69 74 78 78 77 74 68 63 61 62 65 64 63 64 67 70 74 80 91 96 82 62 56 57 54 50 47 42 41 43 44 47 46 44 45 44 45 47 50 54 58 62 65 66 68 69 68 64 56 44 33 30 35 42 47 48 44 37 30 23 23 26 31 34 34 35 39 42 52 73 92 100 100 100 101 103 102 102 103 104 101 99 95 88 86 86
63 69 76 82 84 82 79 78 76 70 65 61 61 62 62 63 66 67 70 77 86 96 93 74 57 56 57 53 50 46 43 42 42 45 48 48 47 46 45 45 46 49 53 58 62 65 67 68 68 69 69 65 54 41 31 29 35 43 46 45 40 33 25 22 24 30 35 34 33 35 38 48 66 86 96 97 97 100 102 103 103 101 97 93 89 85 84 84
73 79 83 85 85 80 74 74 76 75 71 65 60 59 61 63 65 66 69 74 80 88 97 90 69 57 58 57 53 50 45 42 41 43 47 49 50 50 50 48 47 47 50 54 59 63 66 67 67 68 70 72 72 66 53 38 30 30 38 45 46 43 36 29 24 23 29 34 34 33 33 33 42 61 82 92 94 96 99 102 103 102 97 92 88 83 81 80
81 84 84 81 79 75 69 68 72 73 71 69 66 61 60 61 64 67 69 71 74 80 91 97 83 64 61 61 56 53 49 46 45 46 48 51 53 54 54 53 51 49 49 50 54 59 63 67 68 68 70 71 72 75 73 64 48 33 28 33 40 46 44 39 32 25 23 27 32 35 34 31 31 39 58 76 86 89 92 95 99 101 98 92 86 80 76 77
85 85 82 79 78 75 68 64 68 69 65 65 68 65 59 59 61 65 69 69 71 75 82 94 93 74 64 64 60 57 54 51 50 51 51 53 57 58 59 58 56 54 51 49 51 54 58 64 69 70 70 71 71 73 75 76 72 59 42 30 29 37 44 45 42 36 29 23 23 28 34 37 35 34 38 50 66 79 84 84 86 88 89 86 84 82 79 78
87 86 82 81 82 78 69 63 64 64 60 58 61 60 55 56 58 60 64 68 70 73 76 85 91 80 68 67 66 62 59 56 55 56 56 56 57 59 62 63 62 59 56 54 53 54 56 61 67 70 70 70 70 72 74 75 77 77 67 50 35 28 32 39 45 44 40 33 25 21 25 34 40 40 38 38 48 64 74 78 77 75 76 79 84 86 82 79
89 89 87 84 83 82 73 63 59 58 58 56 53 53 52 52 54 55 59 64 66 72 75 75 80 79 71 69 70 67 63 60 59 60 62 62 63 63 64 66 68 66 62 59 56 55 57 60 65 70 72 71 69 69 71 73 76 80 82 75 60 43 30 28 34 42 45 43 37 28 22 24 30 37 43 43 43 49 59 69 76 74 71 73 79 83 79 77
91 89 90 85 81 84 77 64 57 55 56 55 50 48 49 49 51 53 56 60 62 68 74 71 71 75 71 69 71 71 67 64 63 65 67 68 70 70 69 70 71 70 67 64 61 59 59 60 63 69 74 76 74 69 68 70 73 76 81 83 79 69 53 36 27 30 38 43 44 40 32 26 23 25 34 42 46 46 46 54 70 80 79 75 75 78 79 80
92 89 90 83 77 82 78 64 57 54 51 51 48 46 45 45 48 51 54 58 60 64 70 70 71 76 72 68 70 70 69 66 64 66 70 73 77 75 73 75 76 74 71 67 64 62 62 62 62 66 72 78 79 75 69 68 70 72 75 80 82 80 74 63 45 30 28 34 40 44 41 36 30 25 24 31 41 48 48 49 56 67 75 78 79 80 82 84
91 90 89 81 73 76 73 62 58 55 50 49 47 44 42 42 45 49 53 58 60 62 66 66 71 78 73 67 68 69 69 67 63 64 67 73 78 78 77 79 80 77 73 68 65 62 63 65 64 65 70 76 82 82 77 70 68 70 73 76 81 82 80 78 69 51 35 28 31 38 43 42 39 33 26 24 29 39 49 52 51 51 60 73 84 86 85 84
88 87 86 80 73 72 69 62 59 56 51 48 46 43 41 40 43 47 51 57 60 62 64 64 69 77 74 69 70 71 69 65 61 60 62 67 71 74 77 81 81 78 74 71 67 64 63 66 67 67 68 73 80 86 87 83 77 72 71 73 77 80 80 79 77 71 59 42 29 29 35 41 43 40 35 28 24 27 36 45 51 53 55 63 77 88 90 88
81 79 79 77 74 71 66 62 61 58 53 50 47 43 42 41 43 47 50 55 60 60 61 63 67 73 74 69 70 73 72 66 60 58 59 61 63 68 74 79 79 76 75 74 71 68 66 65 65 67 67 69 75 82 87 89 86 79 72 71 73 76 79 79 76 77 76 65 46 32 28 32 38 41 40 35 28 24 25 30 40 52 59 62 69 83 93 94
76 72 70 73 76 72 64 61 62 59 54 53 50 45 44 44 45 49 51 55 60 62 63 65 67 70 72 69 68 72 73 67 61 59 59 60 63 67 72 76 76 75 76 78 77 74 71 67 65 66 67 67 69 74 77 81 86 86 79 73 72 74 77 78 77 77 78 77 68 49 32 26 30 35 40 40 35 28 23 22 26 37 52 63 69 78 90 98
75 69 66 70 78 75 63 58 61 60 56 56 55 50 48 48 50 53 55 58 63 67 68 68 68 69 70 66 64 69 71 68 64 62 62 64 67 70 72 73 74 75 77 80 81 80 79 75 70 68 69 68 66 69 73 77 83 89 88 80 74 73 75 77 79 79 77 78 78 68 48 33 27 29 34 39 40 34 26 22 20 24 35 51 64 75 86 97
75 70 68 70 77 76 63 58 60 59 59 60 59 57 55 54 56 59 61 64 67 70 71 70 69 70 70 64 62 65 67 67 67 65 66 69 71 72 72 70 70 73 75 78 81 83 84 82 77 73 72 71 67 66 70 75 79 85 90 88 80 74 75 76 76 78 78 79 81 79 68 48 32 26 27 32 38 39 32 24 21 21 24 33 48 62 76 89
75 74 73 72 76 77 67 60 59 59 61 63 63 62 61 60 62 64 65 67 68 70 71 71 69 71 72 66 62 66 67 67 69 67 68 75 78 77 74 70 70 73 76 78 79 83 86 85 82 79 76 73 70 67 68 71 74 80 87 92 90 81 75 74 74 75 76 78 80 83 81 67 46 31 26 26 30 36 37 30 23 20 20 23 31 46 65 81
76 76 77 75 77 78 69 62 60 59 61 65 66 65 65 65 66 68 69 69 69 71 73 74 72 72 74 68 64 67 68 67 70 69 68 76 82 80 76 73 72 76 79 80 79 81 86 88 85 82 78 76 74 72 70 70 72 77 81 87 94 89 79 76 76 75 75 77 78 81 85 81 64 43 30 25 25 29 34 34 28 22 20 20 23 32 49 66
78 78 79 79 81 81 72 64 61 61 62 66 67 66 66 68 68 70 73 73 72 72 74 77 77 76 75 70 67 70 70 69 72 71 72 79 83 81 77 73 72 75 79 81 79 78 82 87 87 85 81 78 75 73 72 71 71 75 77 83 91 92 86 80 76 74 74 75 77 79 83 86 80 61 40 28 24 24 28 33 32 26 21 20 21 24 34 46
80 81 81 83 87 84 74 66 64 64 64 65 66 65 65 67 69 72 74 76 75 73 71 73 77 79 77 71 69 72 71 70 73 74 76 81 83 80 76 71 70 74 77 80 79 78 81 85 87 88 85 80 76 74 72 72 73 76 78 81 84 87 87 82 77 75 75 74 76 79 80 84 88 80 58 38 27 24 24 28 32 31 24 20 21 23 28 37
Wind_Speed
28 29 30 30 32 33 34 35 35 36 36 36 35 34 30 27 25 22 20 17 16 16 16 17 18 20 21 23 26 28 29 28 26 24 22 21 22 21 21 19 17 17 16 16 15 14 13 13 11 7 3 2 3 5 6 6 7 10 11 11 12 12 14 15 16 18 18 16 14 12 11 14 14 9 5 4 8 12 15 17 17 18 19 19 20 20 20 20
30 32 32 33 34 36 37 37 37 37 38 37 36 34 31 28 25 21 17 15 13 12 13 13 14 15 16 18 20 23 25 25 24 22 20 20 21 21 20 18 16 16 15 14 13 12 12 11 8 4 2 1 2 4 5 5 8 11 11 11 11 12 13 13 14 16 16 14 12 11 13 15 11 7 5 5 9 12 15 17 17 18 18 19 19 19 20 20
33 35 35 36 37 38 39 39 39 40 40 39 38 36 32 29 25 21 17 14 11 10 9 9 10 11 12 14 16 19 21 22 21 20 20 20 21 21 19 17 16 14 13 12 11 11 11 9 6 5 5 3 3 4 5 6 8 10 11 11 11 12 11 11 11 12 12 11 10 11 13 12 8 7 7 7 9 11 13 14 16 17 17 18 18 18 19 20
36 37 38 38 39 41 41 41 42 43 42 42 41 38 34 31 27 22 18 14 11 8 6 6 6 7 8 10 13 16 18 19 20 20 20 21 21 20 18 16 15 13 13 12 12 12 11 10 8 8 8 7 7 6 7 8 10 11 12 12 12 11 9 9 9 9 10 10 10 11 11 10 9 9 11 11 11 12 13 14 15 16 17 18 18 19 20 21
38 39 40 41 42 44 44 44 45 46 46 44 43 41 37 33 29 25 21 17 14 10 7 3 3 4 5 8 11 13 16 17 18 19 19 20 20 19 17 15 14 14 15 15 15 15 15 14 13 12 12 11 11 10 10 10 12 14 14 13 13 10 8 9 10 11 11 11 11 10 10 10 10 12 13 14 14 15 16 16 17 18 19 19 20 21 22 23
40 41 43 44 45 47 47 47 48 49 49 48 47 45 41 37 33 30 26 22 19 15 10 6 3 0 3 6 9 11 13 15 16 17 18 19 19 18 17 16 15 16 16 17 18 18 19 17 16 15 15 14 14 14 13 13 14 16 16 15 13 10 10 11 11 12 11 10 9 9 9 10 11 13 14 15 16 18 19 20 20 21 21 22 23 24 25 26
41 43 45 46 47 49 50 50 51 52 53 52 50 49 46 42 38 35 31 28 24 21 17 12 8 5 5 7 10 11 12 13 14 16 17 18 19 18 17 16 16 16 17 18 19 20 19 17 16 15 15 15 15 15 15 15 16 16 16 15 13 12 13 13 12 11 11 10 10 10 10 11 12 14 15 16 17 19 21 22 23 24 24 24 25 26 27 29
41 44 46 48 49 51 52 52 53 55 56 55 54 53 51 47 43 39 36 33 29 27 23 19 14 10 8 10 12 12 13 13 14 15 17 18 18 17 15 14 14 15 17 17 17 16 14 13 13 13 14 14 14 14 14 15 16 17 17 16 15 14 14 14 12 11 11 11 11 11 12 12 14 15 16 17 18 20 22 23 25 26 27 27 28 29 30 31
42 44 47 49 50 52 54 55 55 57 58 59 58 57 55 53 48 44 40 37 34 31 28 24 20 14 11 10 12 14 15 15 15 16 17 17 17 15 13 12 12 13 13 13 12 12 11 10 10 10 12 12 13 12 12 13 15 17 18 17 16 15 15 13 12 12 12 12 12 13 14 15 16 17 18 19 20 22 24 25 26 28 29 30 30 31 32 33
42 44 47 49 51 53 55 56 57 58 59 61 61 60 59 57 54 50 45 41 38 35 31 28 23 18 13 10 10 12 14 15 16 18 18 18 16 14 12 11 11 11 11 10 10 11 11 10 9 10 10 11 11 11 11 13 15 17 18 17 15 15 15 14 14 15 15 15 15 15 16 17 19 19 20 21 23 24 27 27 28 29 30 31 32 33 33 34
42 44 46 49 51 53 54 56 57 58 60 61 62 63 62 61 58 55 50 45 41 37 34 30 26 21 16 12 10 9 11 12 13 14 15 15 14 12 10 10 10 11 11 12 12 12 12 11 10 10 10 10 10 11 12 14 15 17 17 16 14 13 14 15 17 18 18 18 18 18 19 21 21 21 22 24 26 28 30 30 30 31 31 32 32 33 33 34
42 44 46 48 51 53 54 55 57 58 59 61 62 64 64 63 61 59 55 51 45 40 36 32 28 24 19 15 11 9 8 10 11 11 10 10 9 7 7 7 9 10 11 12 13 14 13 12 12 11 10 10 10 12 13 14 16 17 17 16 16 15 16 17 18 19 19 19 20 21 22 23 24 25 26 27 30 32 34 34 33 32 32 31 31 32 33 33
41 43 45 47 50 52 54 55 56 57 58 60 61 63 64 64 63 61 59 55 51 45 40 34 30 26 22 17 13 9 7 7 9 9 9 8 6 5 5 5 7 8 9 11 13 14 14 13 12 11 11 12 12 13 14 15 17 18 18 18 18 18 19 20 20 20 20 21 23 24 25 26 28 28 29 30 32 34 36 36 35 33 32 31 31 32 33 34
39 42 44 46 48 51 53 54 55 56 57 58 59 61 63 63 63 62 61 58 55 50 45 39 33 28 23 19 15 11 7 5 6 7 8 7 6 5 5 5 6 7 8 11 13 14 14 14 13 13 13 14 15 15 15 17 19 20 20 20 21 22 23 23 22 22 22 23 25 26 28 29 30 31 31 32 33 35 37 37 35 33 33 33 34 34 34 34
37 40 42 45 47 49 51 53 54 55 55 56 57 59 60 61 62 62 61 59 57 54 50 45 39 32 26 21 16 12 8 5 4 4 6 7 7 6 6 7 8 8 9 12 14 14 14 15 15 16 17 17 17 17 18 19 20 21 21 21 22 24 24 25 24 24 25 27 28 29 30 31 31 32 32 32 34 35 37 36 34 34 35 36 35 34 34 33
36 38 40 43 45 47 49 51 53 54 54 54 55 56 58 59 60 60 60 59 58 56 54 50 46 39 32 26 20 15 10 7 3 1 3 5 6 7 8 8 10 10 11 13 14 14 15 16 17 18 18 19 19 19 20 21 21 22 23 23 24 25 26 26 26 28 29 29 30 31 31 31 32 33 33 33 35 35 34 34 34 35 37 36 34 33 33 33
34 36 38 40 43 45 47 49 51 53 53 53 54 55 56 56 57 58 58 58 58 57 56 53 50 46 41 34 27 20 15 10 6 3 2 4 6 8 9 11 12 12 13 15 15 16 17 18 19 19 19 20 21 21 21 21 22 23 23 24 25 26 27 28 29 31 31 30 31 31 31 32 33 33 34 35 34 32 32 33 34 35 36 35 34 34 35 35
32 34 36 38 41 43 45 47 48 51 52 53 53 53 53 54 54 55 55 55 56 56 56 54 53 51 47 43 37 30 24 17 11 6 3 4 7 9 11 13 14 15 16 17 18 18 19 19 20 20 21 22 22 23 23 23 23 24 25 25 27 28 29 30 32 32 32 31 31 32 32 33 34 34 33 33 32 31 32 34 34 35 35 35 36 37 37 37
30 32 33 36 38 40 43 45 46 48 50 51 52 52 52 52 52 52 52 52 53 54 54 54 53 52 50 47 44 40 35 29 22 15 9 5 5 8 11 14 15 17 18 19 20 21 21 21 22 22 22 24 24 24 25 25 26 26 27 28 28 29 29 30 32 32 32 32 31 31 32 33 34 32 31 32 32 32 33 34 34 35 35 36 38 39 39 40
28 30 31 33 36 38 40 43 45 46 47 49 50 50 50 50 50 51 50 51 52 52 51 52 52 52 51 49 47 45 42 38 33 27 21 14 8 6 9 12 15 17 19 21 22 23 24 24 25 25 25 26 26 27 28 28 28 28 29 29 30 30 30 30 31 32 32 31 31 31 31 31 31 30 32 33 33 33 33 33 34 35 35 37 38 40 41 41
26 28 29 31 33 35 37 40 42 44 46 47 48 49 49 49 50 51 51 51 51 50 50 50 50 50 50 49 48 47 45 43 40 37 32 26 19 12 8 8 11 14 18 21 23 25 26 27 27 28 28 29 30 30 31 30 29 30 30 30 30 31 30 30 31 31 31 30 29 29 30 29 29 31 34 34 33 33 33 33 33 34 35 37 38 39 40 41
25 26 27 29 31 33 35 37 39 42 44 45 46 46 48 49 50 51 51 51 50 49 49 49 49 48 48 47 47 47 46 45 43 41 39 35 31 25 18 12 8 9 12 16 20 22 24 26 28 29 30 32 33 33 33 33 32 31 32 31 31 32 32 31 31 31 29 28 27 28 29 29 30 32 34 33 33 33 33 33 33 33 34 35 36 36 37 38
23 25 26 27 28 30 32 34 36 39 41 43 44 44 46 48 50 51 52 51 50 49 49 48 47 46 46 46 45 46 46 45 44 43 42 40 38 35 30 25 19 14 10 10 13 17 19 22 25 28 30 32 33 35 35 36 35 34 34 34 34 34 34 34 33 32 30 28 27 27 28 29 31 33 34 34 34 34 34 33 32 32 33 33 32 32 33 34
22 23 25 26 26 28 29 31 34 36 38 40 42 42 43 46 48 49 51 51 50 49 49 48 47 46 46 46 46 46 45 45 45 44 44 43 42 40 38 35 31 27 22 17 12 11 13 16 18 22 25 28 31 33 35 37 37 37 37 37 37 37 37 36 36 35 33 31 29 29 29 30 32 33 34 35 34 34 34 33 32 32 31 30 29 29 30 31
20 21 23 24 25 26 27 28 30 33 35 37 39 41 42 43 45 47 48 49 49 49 49 48 48 47 47 47 46 45 45 46 45 45 45 45 44 43 42 40 38 36 33 28 23 17 13 11 13 16 19 23 26 28 31 33 35 36 37 38 38 38 38 39 39 38 37 34 32 31 30 30 33 34 34 34 34 34 34 33 32 31 30 29 28 28 29 30
17 19 20 22 23 24 24 25 27 30 32 34 36 38 40 41 43 44 45 47 47 47 48 49 50 49 48 49 48 47 48 48 47 46 46 45 44 44 43 43 41 40 38 36 33 29 24 19 14 13 14 17 20 23 26 28 29 32 34 37 37 38 39 40 41 40 40 38 36 34 32 32 34 35 34 34 34 34 33 32 33 32 30 30 29 28 28 30
16 17 18 19 20 21 22 23 24 27 28 30 32 35 37 39 40 40 42 44 44 44 46 48 49 49 50 50 49 50 50 50 50 50 49 48 47 46 45 45 44 43 41 40 39 37 35 32 27 22 17 14 15 18 20 23 25 28 30 32 33 35 37 39 40 40 40 39 38 36 35 34 35 36 34 34 34 33 32 33 34 33 32 32 30 27 27 27
15 16 16 17 18 18 19 21 22 24 25 26 29 31 34 36 37 37 39 40 40 42 44 45 47 49 50 51 51 51 51 52 53 53 53 53 53 51 50 48 47 45 44 43 43 42 41 39 37 34 29 24 19 17 17 18 20 23 25 27 29 30 33 35 37 38 38 38 38 36 35 35 36 37 35 34 34 33 33 34 34 35 34 31 29 26 25 25
15 16 16 16 16 16 17 19 20 21 22 23 26 28 30 32 33 34 35 36 37 39 41 42 44 46 48 50 51 52 52 53 54 54 55 56 57 57 56 55 53 51 50 48 46 45 44 43 42 40 38 34 30 26 22 19 18 19 21 23 24 26 29 32 34 35 36 37 37 35 35 34 35 36 36 35 34 33 34 34 35 37 34 29 27 26 24 23
15 16 16 16 16 15 15 16 17 18 19 21 23 25 26 28 30 31 32 33 34 36 38 39 41 42 44 46 48 50 51 52 53 54 55 57 58 59 60 60 61 60 58 56 53 50 48 46 44 43 42 41 39 36 32 27 23 20 19 20 21 22 25 28 31 33 34 36 36 34 34 34 34 35 35 35 34 34 35 35 36 38 34 29 27 26 24 23
16 17 17 17 16 15 14 14 15 16 17 18 20 21 23 25 27 28 29 30 32 33 35 36 38 40 42 43 44 46 48 50 51 53 54 55 57 59 60 62 64 65 64 63 61 58 55 51 48 46 45 44 43 41 39 36 32 26 22 19 19 20 21 23 26 29 32 34 35 34 34 35 35 36 36 36 36 36 36 36 36 37 34 30 28 26 24 24
17 17 17 17 16 15 14 13 13 13 15 16 17 18 19 21 23 25 26 28 29 30 31 33 35 37 40 41 42 43 44 46 49 51 52 54 55 57 59 61 63 65 66 67 67 66 65 62 58 53 50 47 45 44 43 42 40 35 30 24 20 19 20 21 22 23 26 29 32 35 35 36 36 37 38 38 37 37 37 36 37 37 34 31 28 26 25 24
17 17 17 17 16 15 14 13 12 11 12 13 14 15 16 18 20 22 23 25 27 27 28 30 33 35 37 39 40 40 41 43 46 48 50 52 54 55 57 59 60 63 65 66 67 68 69 69 67 64 60 55 50 48 46 45 44 42 39 34 28 23 20 20 21 21 21 23 27 32 35 36 37 37 37 37 37 37 38 38 38 37 34 31 29 27 26 25
17 16 16 16 16 15 14 13 12 11 11 11 12 13 13 15 17 19 21 23 24 25 26 27 30 32 34 36 37 39 40 41 43 45 48 50 52 54 55 56 58 60 62 64 66 67 68 69 70 70 68 65 60 55 51 48 47 46 44 42 38 32 26 22 21 20 19 19 22 26 31 34 37 38 38 37 37 38 39 39 39 37 35 33 31 28 27 26
16 15 15 15 15 14 14 13 13 12 11 10 10 11 12 13 14 16 18 20 21 22 23 24 26 29 32 33 35 38 39 41 42 44 46 49 51 53 54 56 57 58 60 62 64 66 67 68 70 71 72 71 69 65 60 55 51 48 47 46 44 41 37 31 26 22 20 19 19 22 26 31 35 38 39 39 38 38 39 40 40 39 37 35 33 30 28 27
14 14 13 13 13 13 13 13 13 13 12 11 10 10 10 11 12 14 16 17 18 19 20 21 23 26 29 32 33 35 38 39 41 43 46 47 49 51 53 54 56 57 58 60 61 63 65 67 68 70 72 73 74 73 70 65 59 54 51 49 47 46 44 40 34 28 25 22 20 20 22 26 31 35 38 40 40 40 40 41 41 40 39 37 34 32 30 28
12 12 12 12 12 12 12 12 13 13 13 12 11 10 10 10 10 12 14 15 15 17 18 19 20 23 26 29 31 33 36 38 41 43 45 47 48 50 51 53 54 55 56 58 59 61 63 65 66 68 70 71 73 74 75 74 69 63 58 53 50 49 47 45 42 37 32 27 24 22 22 24 26 30 35 39 40 41 42 43 42 41 41 39 36 34 31 29
10 10 11 11 11 12 12 12 13 13 13 12 11 10 9 8 9 10 11 12 13 15 16 17 18 19 22 26 29 32 34 36 39 41 43 45 47 49 50 51 52 53 54 55 57 58 60 62 64 66 67 69 71 73 74 76 76 73 68 61 56 52 49 47 46 44 40 35 30 25 23 22 23 26 30 35 39 41 43 43 43 42 42 39 36 34 32 30
10 10 11 11 11 12 12 12 13 14 14 12 11 9 9 8 7 7 8 10 11 13 14 15 16 16 19 22 27 30 32 34 36 39 41 43 45 47 48 50 50 51 52 53 55 57 58 60 62 63 65 67 69 71 72 74 75 76 75 71 64 58 53 50 48 46 44 41 38 33 27 23 22 23 26 30 34 39 42 43 43 43 42 38 35 35 34 31
11 11 11 11 11 12 12 12 12 13 14 13 11 9 9 8 6 6 6 8 9 11 12 13 14 15 17 20 24 27 30 32 34 37 39 41 43 45 47 48 49 50 51 51 53 54 56 58 60 61 63 65 66 68 70 72 73 75 76 76 74 68 62 56 51 48 46 44 42 39 34 29 25 23 23 25 29 34 38 41 43 43 42 39 36 36 35 32
13 12 12 12 11 11 12 12 12 12 13 13 12 10 9 8 7 6 5 6 8 10 11 12 14 15 16 18 21 24 28 30 33 35 38 40 41 43 45 47 48 49 50 50 51 52 54 56 58 59 61 63 65 66 68 70 71 73 74 76 77 76 72 66 59 53 49 47 44 43 40 35 32 28 24 23 25 28 32 36 40 42 42 40 37 36 36 33
16 15 14 13 12 12 12 11 11 11 11 12 12 11 10 9 8 7 6 6 8 9 10 12 13 15 15 16 19 22 25 29 32 34 37 38 40 41 43 45 46 48 49 49 50 51 52 54 56 57 59 61 63 65 66 68 69 71 72 74 76 77 77 74 68 62 56 51 47 45 44 40 37 34 30 27 25 26 28 30 35 39 41 41 39 37 36 35
19 17 16 15 13 12 11 10 9 10 10 10 10 10 10 9 8 7 7 7 8 9 10 12 13 14 15 15 17 20 23 27 31 34 36 37 38 39 41 43 45 46 48 49 49 50 51 53 54 56 58 59 61 64 65 67 68 69 71 72 74 76 77 77 75 70 65 59 53 48 46 44 42 39 35 31 28 27 27 28 31 33 36 38 40 39 38 36
21 19 18 17 15 13 12 10 9 9 9 8 9 10 9 9 8 7 7 7 7 9 10 11 13 14 15 15 16 19 22 26 30 33 35 36 36 37 39 41 43 45 47 48 50 50 51 52 53 55 56 58 60 62 64 65 67 68 69 71 72 73 75 77 77 75 72 67 61 54 49 46 44 43 40 36 32 29 28 29 30 30 32 34 37 38 38 37
23 21 20 18 16 14 13 11 9 9 8 8 8 9 9 9 8 8 7 7 7 8 10 11 12 13 15 15 16 18 21 25 29 32 34 35 35 36 38 40 42 44 46 48 49 51 51 52 53 54 55 56 58 59 61 63 64 66 67 69 70 72 73 75 77 78 77 74 69 63 56 50 46 44 43 40 37 32 30 30 29 30 30 31 33 36 37 37
24 22 20 19 18 17 14 12 11 10 9 8 8 8 8 9 8 8 8 8 8 8 9 10 11 12 14 14 15 17 20 24 28 31 32 33 35 36 37 38 40 42 45 47 48 50 51 52 53 53 54 55 56 57 59 61 63 64 66 67 69 71 72 74 76 78 78 77 75 70 64 58 52 47 45 44 41 37 33 31 29 29 29 30 31 33 35 36
26 23 20 20 20 19 17 14 13 12 10 8 8 8 8 8 9 8 8 8 8 9 10 11 11 12 12 13 14 16 19 23 27 30 31 32 34 36 37 37 39 41 43 46 48 49 51 52 53 54 54 55 56 57 58 60 62 63 65 66 68 69 71 73 75 76 78 78 78 75 71 65 59 53 48 45 44 42 38 34 31 29 28 28 29 30 33 35
26 24 22 22 21 20 18 16 15 14 12 10 10 10 9 9 9 9 9 9 9 10 10 11 11 12 12 13 13 15 18 21 25 28 29 31 33 35 36 37 39 40 42 45 47 49 50 52 53 54 54 54 55 56 57 59 60 62 64 65 66 68 69 71 73 75 77 79 79 78 76 71 66 60 53 48 45 44 42 38 34 31 29 28 28 29 30 32
27 25 24 23 22 21 20 19 18 16 14 13 12 12 11 10 10 10 10 10 10 11 11 11 11 12 13 13 14 15 17 20 23 26 28 30 32 34 36 38 39 40 42 44 46 48 49 51 52 53 53 54 54 55 57 58 59 61 62 64 65 67 68 70 71 74 76 78 79 80 79 76 71 66 60 53 48 45 44 41 37 33 30 29 28 28 29 30
27 26 26 24 23 22 21 21 20 19 17 16 15 14 13 12 12 12 12 12 11 11 11 12 12 12 13 14 14 16 18 20 23 25 27 29 31 33 35 37 38 40 42 44 45 47 48 49 51 52 53 53 54 55 56 57 58 59 61 63 64 66 67 69 71 72 74 76 78 80 81 80 77 72 66 60 53 48 45 43 40 36 33 30 28 27 28 29
29 28 27 25 24 23 23 22 22 21 20 19 18 17 16 14 14 14 14 14 13 12 12 12 12 13 13 14 15 16 18 20 23 25 26 28 31 32 34 35 37 39 41 43 44 46 48 49 50 51 52 53 53 54 54 56 57 58 60 61 63 64 66 68 70 71 73 75 77 79 80 81 81 77 72 67 60 53 48 45 43 39 35 32 29 27 27 28
30 29 28 26 26 25 24 23 23 23 22 22 21 20 19 17 16 16 17 16 15 14 13 12 12 13 13 14 15 16 18 20 23 25 26 28 30 31 33 34 36 39 41 42 44 46 48 49 50 51 52 53 53 54 54 56 57 58 59 61 61 63 64 66 68 70 72 73 75 78 79 81 83 82 77 72 67 61 53 48 45 42 38 34 30 28 27 27
Wind_Direction
20 17 15 12 10 7 4 1 357 354 353 351 350 347 344 340 335 329 321 312 301 290 280 273 268 263 260 254 248 243 241 238 237 236 232 227 222 219 217 216 220 229 239 246 251 253 253 251 251 251 255 268 249 232 220 211 202 198 199 212 227 223 206 196 197 205 213 221 220 214 217 222 217 201 189 233 249 248 247 245 243 241 240 236 233 231 232 234
25 23 20 18 16 14 11 8 4 2 0 359 357 356 353 350 346 341 333 322 309 294 282 273 267 263 257 250 243 238 234 231 229 227 222 216 212 210 209 209 215 225 234 242 244 243 242 241 240 217 148 142 246 236 217 206 205 203 199 204 214 212 210 205 201 207 217 225 226 223 225 224 215 191 191 235 252 254 252 249 248 247 246 244 242 240 240 241
30 27 25 22 21 19 16 13 11 9 7 6 5 4 2 360 357 354 349 339 326 308 289 274 264 259 252 244 236 230 225 221 218 215 211 205 202 202 202 204 211 221 229 233 231 228 227 223 211 175 153 169 207 213 200 192 200 204 200 199 203 203 203 200 198 207 215 221 224 225 225 220 206 195 206 232 252 260 262 260 257 257 257 257 255 254 254 253
33 31 28 26 25 23 20 18 17 16 14 13 13 12 10 9 8 7 6 3 357 342 316 284 262 251 242 231 222 217 214 211 209 206 202 197 195 196 197 201 207 217 223 221 216 214 210 200 189 177 175 182 186 187 185 183 186 195 198 198 201 200 188 182 187 193 197 200 203 209 215 213 206 209 218 234 250 257 264 266 266 265 266 265 265 264 263 262
35 33 31 29 28 26 24 23 22 21 20 19 19 19 17 17 18 18 19 22 21 14 360 329 275 241 223 211 204 200 200 201 202 200 196 192 189 190 192 197 205 214 215 210 206 204 200 194 187 182 184 187 187 184 182 184 185 187 193 199 202 192 169 169 178 180 185 192 197 203 212 216 218 220 226 238 252 259 263 266 267 268 267 266 266 265 265 266
38 36 34 32 31 29 27 26 26 26 25 24 24 24 24 24 25 27 28 31 34 31 24 17 3 238 173 174 180 184 187 191 193 191 189 186 183 184 189 195 205 212 211 208 206 204 202 198 190 187 189 192 194 190 184 188 191 190 193 198 200 183 166 175 181 181 188 196 203 211 218 226 232 233 235 240 252 261 262 263 266 268 268 267 267 267 267 267
39 38 36 34 33 32 30 29 29 29 28 28 29 29 29 29 30 32 34 37 40 41 38 34 38 58 110 138 152 163 172 178 182 182 179 179 179 181 188 198 208 211 211 211 211 211 210 205 198 195 197 200 203 200 193 191 194 195 196 200 197 182 178 188 191 189 193 203 214 223 230 238 244 246 246 245 252 264 268 267 269 271 272 272 271 271 270 269
41 40 39 37 35 34 32 31 31 32 31 31 32 32 33 33 34 36 38 40 44 47 47 46 48 60 91 123 139 149 159 166 171 174 173 174 178 182 190 204 213 216 218 220 222 225 226 222 214 208 209 212 214 213 208 202 198 197 200 204 199 188 190 199 201 200 202 208 219 228 238 247 254 258 259 258 260 269 273 274 274 275 275 275 274 272 271 270
42 42 41 39 38 36 35 33 33 33 34 34 34 35 36 36 36 38 40 43 46 50 52 52 53 59 78 109 131 144 153 159 165 168 170 173 178 183 193 208 219 224 228 232 239 244 248 248 243 233 228 229 229 228 225 219 211 206 208 211 205 195 197 206 212 216 218 220 226 233 242 250 257 261 265 268 270 273 275 276 277 277 277 277 275 274 272 271
43 43 43 42 40 38 37 35 34 35 35 35 36 37 37 38 38 39 41 43 46 50 53 55 56 58 67 84 113 136 149 157 163 166 169 175 180 185 195 208 218 226 231 237 244 248 252 255 255 251 249 249 248 244 238 231 225 219 221 225 221 207 201 207 215 222 227 232 237 241 248 253 258 262 268 273 275 276 277 277 276 277 277 277 277 276 275 274
44 45 45 44 43 41 39 37 36 36 36 36 37 38 38 39 40 40 41 43 45 49 52 55 56 57 60 66 84 114 137 151 161 167 170 175 181 190 201 210 216 221 224 229 233 236 238 240 245 248 253 258 258 254 245 238 233 229 232 240 243 229 214 214 219 225 231 236 242 247 253 258 262 267 272 275 277 278 278 277 275 275 275 276 276 276 276 276
44 46 46 46 45 43 41 39 38 37 37 37 38 39 39 40 41 41 42 44 45 48 51 54 56 57 58 60 67 87 118 141 155 165 171 175 182 199 218 230 235 234 233 234 236 238 237 235 236 238 243 250 255 256 249 243 238 234 236 242 247 242 231 227 228 231 237 241 247 252 256 261 266 270 272 274 277 278 278 278 277 276 275 274 274 275 276 276
43 46 47 47 47 46 44 41 39 38 38 38 39 40 40 41 41 42 43 44 46 47 49 52 55 57 57 56 59 67 92 125 148 161 168 174 183 209 235 252 262 266 265 260 256 255 253 250 247 245 245 244 244 246 245 242 238 233 231 232 236 237 235 234 234 237 241 244 248 253 257 261 265 268 271 273 275 277 278 279 280 280 278 276 275 274 275 275
41 45 47 47 48 48 46 43 40 39 39 39 40 41 41 41 42 43 43 45 46 48 49 51 53 55 57 57 57 59 70 99 136 158 170 178 192 214 233 244 252 259 265 265 263 262 262 261 258 253 249 245 242 241 238 237 237 234 233 232 233 234 235 237 239 241 244 246 249 253 256 260 264 267 269 272 273 275 277 279 281 282 281 279 278 276 275 274
40 43 46 47 48 48 48 46 43 40 40 40 41 42 42 42 43 43 44 45 46 48 49 51 52 53 54 56 56 57 58 70 109 157 178 189 204 223 240 250 252 248 247 252 255 257 259 260 258 253 249 248 247 245 242 239 237 237 237 238 239 240 241 242 243 245 246 248 251 254 257 261 264 267 269 271 273 275 277 279 281 282 281 280 278 277 276 274
38 40 44 46 47 48 48 48 45 42 41 41 41 42 43 43 43 44 45 46 47 48 49 51 52 52 53 53 53 53 51 48 49 110 198 207 217 231 244 254 260 259 254 253 253 253 254 254 254 253 252 252 250 248 247 246 244 241 240 240 242 244 246 248 248 248 248 249 253 256 259 263 266 268 270 272 273 274 276 278 281 282 281 280 279 279 277 276
37 38 41 44 46 47 48 48 47 44 41 40 41 42 43 44 44 44 45 46 47 48 49 50 52 53 53 53 52 50 46 41 32 9 286 248 241 241 246 252 257 260 262 262 261 259 257 255 254 253 253 252 251 250 249 250 251 249 246 244 243 244 246 248 249 250 251 252 255 258 261 264 267 269 271 273 273 274 276 279 281 281 280 281 282 281 280 278
37 37 38 42 45 46 46 47 47 46 43 41 40 41 43 44 44 44 45 46 47 48 50 50 51 53 53 53 53 51 49 45 38 24 345 286 263 254 252 253 254 256 260 264 266 266 266 264 263 262 260 258 256 254 252 251 251 251 250 248 245 244 245 247 250 251 253 254 256 259 263 266 268 270 272 273 273 274 278 280 280 280 281 285 286 285 283 280
37 37 37 39 42 44 45 45 46 46 45 42 40 40 42 43 44 45 45 46 47 49 50 50 51 52 53 53 53 53 52 50 47 40 27 353 298 274 266 263 261 259 260 264 267 269 269 269 268 268 266 265 264 262 259 255 252 250 250 249 247 245 245 247 250 253 255 257 259 262 264 267 270 271 271 269 270 274 277 278 279 282 286 289 289 287 285 282
37 37 37 38 40 42 43 44 44 45 45 43 41 40 41 42 43 44 44 45 47 48 49 50 51 52 52 53 53 53 53 53 51 49 44 35 12 325 292 278 272 267 263 263 263 264 265 266 266 267 267 266 265 264 262 259 257 256 254 254 253 252 250 250 252 255 257 260 262 264 265 266 267 266 264 264 267 272 276 278 281 286 290 291 289 287 285 282
36 37 37 37 39 40 42 43 44 44 43 43 41 40 40 41 43 43 43 43 45 46 47 48 50 51 51 52 52 53 53 53 52 51 50 47 41 29 356 312 288 276 270 266 264 263 263 263 264 266 266 267 266 266 265 264 264 263 262 261 261 261 259 257 256 256 257 259 262 263 264 262 261 259 260 263 269 274 276 279 283 290 293 292 290 287 284 281
35 35 35 35 37 39 40 41 43 43 43 42 41 39 39 40 41 43 43 43 44 45 45 47 48 49 51 51 51 52 53 53 53 52 51 50 49 46 39 23 347 305 284 275 272 270 268 267 267 266 266 266 267 268 269 269 268 268 268 267 266 265 264 261 259 258 256 256 257 259 260 259 257 258 261 266 272 275 277 280 286 292 293 292 290 285 282 280
34 34 33 33 34 37 38 39 41 43 43 43 41 39 39 39 40 41 42 42 43 44 45 46 46 47 49 50 50 51 52 53 53 53 52 52 51 50 48 44 36 21 355 319 294 282 276 272 269 267 267 267 268 268 270 270 269 268 268 267 266 266 266 266 264 262 260 257 256 257 259 259 260 262 265 269 272 274 277 282 289 293 293 292 290 285 282 281
33 32 31 30 30 33 36 37 39 40 41 42 41 39 39 40 40 41 42 43 42 44 45 45 45 45 47 48 49 50 51 51 52 52 52 52 51 50 49 48 46 41 35 23 359 323 300 287 276 271 269 269 268 268 268 269 269 269 268 267 267 267 268 269 268 267 264 261 258 257 258 261 262 264 267 269 272 274 277 283 290 291 292 292 289 284 282 282
29 29 29 29 28 29 31 35 37 38 39 40 41 40 38 40 41 40 43 44 43 45 46 46 46 46 46 48 49 49 50 51 51 51 51 51 51 51 50 49 47 45 43 39 33 21 357 327 299 284 277 272 271 270 269 269 270 271 270 269 268 267 267 267 267 267 266 264 261 259 258 260 262 263 264 267 270 271 276 283 287 289 291 290 287 284 283 282
22 23 25 25 26 26 27 31 35 37 38 38 39 41 39 39 40 41 43 44 44 45 47 48 48 47 47 50 51 50 52 53 52 52 51 51 50 51 51 51 49 48 46 44 41 37 31 20 358 328 303 287 280 276 273 272 271 270 269 268 268 268 267 266 266 266 266 266 264 261 260 259 260 260 261 264 265 268 274 279 282 285 287 286 287 288 286 283
12 15 18 19 20 22 23 26 31 35 36 37 38 40 40 39 39 41 43 44 44 45 46 49 50 49 49 51 52 53 54 54 54 54 54 53 51 50 50 50 50 49 48 47 45 42 40 36 31 21 4 337 312 296 286 279 275 272 270 270 269 269 269 269 268 267 266 266 264 262 260 258 258 259 260 260 260 263 269 273 278 282 282 283 287 290 291 288
0 4 8 11 13 15 18 21 25 30 33 35 37 39 40 40 38 40 43 44 45 45 46 48 49 50 51 51 52 53 54 55 56 56 56 55 54 53 51 50 49 49 48 48 47 46 44 41 38 35 30 20 5 345 325 307 293 285 280 276 273 270 269 268 268 268 267 265 263 261 260 258 258 259 258 256 255 258 262 268 274 276 276 281 285 287 291 296
348 352 356 1 4 6 10 15 19 24 28 32 35 37 39 40 39 38 41 44 45 45 45 46 47 49 50 51 51 51 52 54 56 56 56 57 56 55 54 53 51 49 47 46 46 46 45 43 41 40 37 34 28 19 7 349 328 311 300 292 285 278 273 270 268 267 266 264 263 260 258 257 256 256 255 253 253 255 258 263 268 270 274 281 283 285 291 298
337 341 345 349 354 357 0 6 12 16 20 26 32 34 36 39 39 38 39 41 42 43 44 43 44 46 48 49 50 50 50 52 53 55 56 57 57 56 55 55 54 52 50 48 46 45 44 43 42 41 39 38 36 32 27 18 4 347 329 314 303 292 282 275 271 268 266 263 262 259 257 254 252 252 251 251 252 253 255 258 264 270 277 281 283 286 291 296
327 331 335 339 343 347 351 355 1 6 12 19 25 31 33 36 39 38 37 38 39 39 41 41 41 42 44 46 47 48 48 49 50 51 53 55 56 56 55 55 54 53 52 51 49 47 46 44 42 41 39 38 37 36 34 30 24 14 360 341 325 312 299 288 279 272 267 263 261 258 255 252 251 250 249 250 252 252 253 257 263 269 275 279 283 288 291 294
318 323 327 331 334 338 341 344 349 355 2 9 17 25 30 33 37 39 38 38 37 35 37 39 40 40 41 42 43 44 45 46 47 48 49 51 53 54 54 54 53 52 51 50 49 48 47 46 44 42 40 38 37 36 35 33 31 27 20 9 352 334 321 310 299 287 275 265 260 256 253 251 251 251 250 251 251 251 252 255 259 265 271 278 282 285 287 290
310 315 319 324 327 330 333 334 337 342 350 359 7 15 23 29 32 35 38 39 37 34 32 35 38 39 39 39 39 41 42 44 45 46 46 48 49 51 52 53 52 52 51 49 48 48 47 46 45 44 42 40 38 36 34 33 32 31 28 24 15 1 344 330 319 308 294 278 264 257 253 250 249 250 250 250 250 250 252 254 258 262 268 273 276 279 282 285
302 307 312 317 321 324 328 329 330 333 338 347 355 3 13 23 28 30 33 36 36 34 30 30 34 37 37 37 37 37 40 41 43 44 44 44 45 46 47 49 50 50 50 49 48 47 46 45 45 44 43 42 40 38 36 34 32 31 30 28 25 19 8 354 340 327 313 297 277 264 256 251 248 248 249 249 249 250 252 254 257 260 264 267 271 274 277 280
297 302 307 312 316 321 325 327 329 330 331 334 340 348 0 13 21 25 28 31 33 35 31 27 30 33 35 35 35 35 37 39 40 41 42 42 42 42 42 43 45 46 47 47 46 45 44 44 43 43 42 42 41 40 38 35 33 31 30 29 27 25 21 13 2 348 333 317 297 278 265 257 251 248 248 248 249 250 252 254 256 258 261 264 268 270 273 276
292 298 304 308 313 319 325 329 330 331 331 329 327 334 348 1 10 17 23 26 29 33 32 27 25 28 31 33 33 33 34 36 38 39 39 39 39 39 39 39 40 42 43 44 44 44 43 42 41 41 41 40 40 40 39 37 34 32 30 29 27 26 24 21 16 7 354 338 322 303 283 269 260 253 250 249 249 249 251 253 255 257 259 262 264 267 268 272
288 294 300 306 313 320 326 330 332 332 332 331 325 323 332 346 358 7 14 18 23 28 31 29 23 23 26 29 31 31 32 33 35 36 36 36 36 36 36 36 36 37 39 40 41 42 42 41 40 40 39 39 39 39 38 38 36 34 32 29 27 26 25 23 22 17 10 359 345 328 308 292 278 265 257 253 251 251 251 252 254 256 258 260 262 265 267 271
283 291 297 305 314 320 325 330 331 330 331 331 325 316 315 328 344 355 4 9 15 21 26 27 24 19 20 25 27 29 31 31 32 33 33 33 33 33 33 34 34 34 35 36 38 39 40 40 39 38 38 37 37 37 37 37 37 36 34 32 29 27 25 24 23 21 17 11 3 351 335 318 300 283 271 263 258 255 254 254 255 256 258 260 263 266 268 272
278 286 294 303 311 317 322 328 328 327 328 327 323 312 302 307 326 342 354 1 5 12 17 22 22 17 15 20 25 27 29 29 29 29 29 29 29 29 30 31 32 32 33 33 34 36 37 37 37 37 36 36 36 35 35 35 35 35 35 33 31 29 26 24 23 22 20 16 12 5 357 342 322 304 289 277 268 262 259 258 259 259 260 261 263 265 267 269
273 282 289 297 305 312 317 323 325 325 325 324 321 310 297 294 305 324 341 351 358 4 7 12 19 15 11 16 21 24 26 26 26 25 26 26 26 26 27 28 30 31 31 32 32 33 34 35 35 35 35 34 34 34 33 33 33 33 33 33 33 31 28 25 24 23 21 19 16 11 6 357 344 328 310 293 281 272 267 264 263 263 264 263 262 263 265 267
270 276 282 288 296 304 310 315 320 323 322 321 318 310 296 288 290 302 321 337 349 357 357 2 12 13 9 11 17 20 21 22 23 22 22 22 23 25 26 27 28 29 30 31 31 31 32 33 33 33 33 32 32 32 32 32 31 31 32 32 32 32 30 28 25 23 21 20 18 15 12 5 356 346 332 315 299 286 278 272 268 266 265 265 264 263 266 268
268 271 275 280 287 295 300 306 313 318 317 316 315 308 294 283 280 285 300 320 338 349 352 355 4 8 6 6 11 14 17 18 19 19 19 20 22 24 27 27 27 28 28 29 29 30 30 30 31 32 32 31 30 30 30 30 30 30 30 30 30 30 30 29 28 25 22 20 18 16 14 11 5 357 346 333 318 304 293 283 274 269 267 266 265 265 266 268
266 269 271 274 279 285 288 293 303 308 309 311 310 302 289 278 272 275 287 305 324 338 346 352 358 2 1 1 4 8 12 14 16 17 17 19 22 25 26 28 28 27 27 26 27 29 29 29 29 29 30 30 29 28 28 28 28 28 28 28 28 28 28 28 28 27 25 22 20 17 14 12 10 5 357 346 333 319 306 294 285 279 273 269 266 266 266 267
262 264 266 269 272 276 278 282 291 295 299 304 304 297 286 275 269 270 277 291 309 326 339 349 355 357 357 356 357 1 6 11 14 15 16 19 23 25 26 27 28 28 27 25 25 26 27 27 27 27 27 28 28 27 26 26 26 26 26 26 26 26 26 27 27 27 26 24 22 19 16 13 10 8 4 356 346 332 318 307 298 290 282 275 269 267 267 267
259 260 262 265 268 269 268 270 277 281 285 293 296 294 285 275 270 270 274 283 300 319 334 345 352 355 355 352 352 355 0 6 11 14 15 18 22 24 25 26 26 27 26 25 24 24 25 26 25 25 25 25 26 26 25 25 24 24 24 24 24 24 24 25 25 25 25 25 23 21 19 15 12 9 6 2 355 344 330 318 309 299 290 282 275 270 267 267
256 256 257 261 264 264 260 258 262 266 271 279 286 287 283 278 275 275 279 287 301 318 330 340 348 353 353 349 348 350 356 3 8 11 14 16 18 21 23 24 24 24 25 24 23 22 22 23 23 23 22 23 23 23 23 23 23 23 22 22 22 22 22 23 23 23 24 24 23 22 20 18 14 10 7 4 0 353 342 330 319 308 298 288 280 273 269 267
255 255 255 256 259 259 255 251 252 254 257 265 272 275 276 277 278 280 285 293 303 316 326 334 343 348 348 347 345 347 353 360 5 9 11 13 15 16 18 20 21 22 22 22 21 20 19 20 20 21 21 20 20 21 21 21 21 21 21 21 21 21 21 21 21 21 22 22 22 22 21 19 16 13 9 6 2 358 351 341 330 318 307 296 286 276 270 266
253 254 253 252 254 256 253 249 248 248 248 252 259 263 267 271 276 280 287 295 302 311 321 330 336 340 342 342 342 346 352 357 2 6 8 9 11 12 14 15 17 18 20 20 20 19 18 17 18 18 19 18 17 18 19 19 19 19 19 19 19 19 19 19 19 20 20 20 21 21 20 19 18 15 12 8 4 0 356 349 339 327 316 305 295 284 275 268
250 251 251 250 251 253 252 249 247 246 246 247 252 257 261 266 272 277 284 291 298 307 317 325 330 333 335 336 337 343 349 354 358 2 5 6 7 8 10 11 13 15 16 17 18 17 16 15 15 16 16 16 15 16 17 17 17 18 17 17 17 17 17 17 18 18 19 19 19 20 19 19 18 16 14 10 6 2 359 354 346 336 324 314 305 295 285 274
249 249 249 249 248 250 251 249 247 246 245 246 249 253 256 261 267 273 279 285 291 300 310 318 324 328 331 331 332 338 344 349 353 357 1 3 4 6 7 8 10 11 12 14 15 15 14 14 13 13 14 14 14 14 14 15 15 16 16 16 15 14 14 15 16 16 17 17 18 18 18 18 17 16 14 12 9 5 1 358 352 343 332 323 313 303 292 283
248 247 247 247 247 247 249 249 248 247 246 246 248 251 253 257 262 268 275 279 284 291 300 309 317 322 325 325 326 332 338 343 348 353 357 359 1 2 3 4 6 8 9 10 11 12 12 12 11 10 11 12 12 12 12 12 13 13 14 15 14 13 12 12 13 14 15 16 16 17 17 17 17 16 14 12 10 8 4 0 357 350 340 330 319 309 299 290
248 247 246 245 245 246 246 247 248 247 247 247 248 251 253 256 260 266 270 274 279 285 290 297 307 315 319 318 319 325 332 337 344 349 353 354 356 357 358 360 2 4 5 6 7 9 10 9 9 8 8 9 9 10 11 11 11 11 12 12 12 11 11 10 11 12 13 13 14 15 15 16 16 15 14 13 11 9 6 2 359 355 348 338 325 314 305 297